BAW7 EGLL-RJAA

Flight info

Callsign BAW7
Flight time N/A
Altitude 33000
Route DET L6 DVR UL9 KONAN DCT KOK DCT RITAX DCT BANUX DCT VEKIR DCT LATLO DCT INSAX DCT TONDO DCT PADGU DCT BULEN L744 UDROS UM859 KARDE UN644 ROLIN N644 LAGAS M747 BAGVA/N0494F350 M747 SUBUT T916 BALUN/K0907F350 T916 PIGAL M610 RULAD/K0904S1070 A343 NLT/K0900S1130 A343 POSOT B215 FKG W188 LIKMI W270 DKO W69 HUR B339 LADIX W34 IRTAK/K0893S1190 W34 ANRAT A326 DONVO G597 AGAVO/N0487F390 Y644 EGOBA G597 LANAT Y71 SHTLE Y79 GUPER Y81 RUTAS
Aircraft A35K/H-SDE2E3GHIJ3J4J5LM1ORWXY/LB1D1

Departure

Time N/A
Airport London Heathrow Airport (EGLL)

Arrival

Time 2026-05-05 12:15
Airport Narita International Airport (RJAA)
Time Latitude Longitude Altitude Speed Heading
2026-05-05 11:12 35.51895 134.27505 39128 ft 556 kts 119°
2026-05-05 11:12 35.50501 134.31924 39133 ft 556 kts 119°
2026-05-05 11:13 35.47703 134.40772 39149 ft 556 kts 119°
2026-05-05 11:13 35.44898 134.49614 39167 ft 557 kts 119°
2026-05-05 11:14 35.42097 134.58415 39185 ft 557 kts 120°
2026-05-05 11:14 35.39284 134.67238 39185 ft 558 kts 120°
2026-05-05 11:15 35.36440 134.76128 39186 ft 559 kts 120°
2026-05-05 11:15 35.33598 134.84984 39185 ft 560 kts 120°
2026-05-05 11:16 35.30736 134.93872 39184 ft 561 kts 120°
2026-05-05 11:16 35.27889 135.02696 39195 ft 561 kts 120°
2026-05-05 11:17 35.25011 135.11584 39192 ft 563 kts 120°
2026-05-05 11:17 35.22113 135.20499 39192 ft 564 kts 120°
2026-05-05 11:18 35.19211 135.29408 39190 ft 564 kts 120°
2026-05-05 11:18 35.16299 135.38322 39200 ft 565 kts 120°
2026-05-05 11:19 35.13398 135.47171 39201 ft 565 kts 120°
2026-05-05 11:19 35.10464 135.56102 39201 ft 566 kts 120°
2026-05-05 11:20 35.07532 135.65006 39203 ft 566 kts 120°
2026-05-05 11:20 35.04587 135.73919 39208 ft 566 kts 121°
2026-05-05 11:21 35.01818 135.82876 39209 ft 576 kts 112°
2026-05-05 11:21 35.00048 135.92451 39213 ft 581 kts 108°
2026-05-05 11:22 34.98490 136.02138 39216 ft 583 kts 107°
2026-05-05 11:22 34.96951 136.11834 39218 ft 583 kts 108°
2026-05-05 11:23 34.95387 136.21477 39226 ft 583 kts 108°
2026-05-05 11:23 34.93790 136.31168 39230 ft 583 kts 108°
2026-05-05 11:24 34.92457 136.39208 39223 ft 583 kts 108°
2026-05-05 11:24 34.90844 136.48894 39231 ft 583 kts 108°
2026-05-05 11:25 34.89224 136.58575 39234 ft 583 kts 108°
2026-05-05 11:25 34.87337 136.69825 39237 ft 584 kts 108°
2026-05-05 11:26 34.85975 136.77871 39235 ft 584 kts 108°
2026-05-05 11:26 34.84328 136.87553 39235 ft 584 kts 108°
2026-05-05 11:27 34.81504 136.98266 39241 ft 553 kts 125°
2026-05-05 11:27 34.79820 137.02384 39244 ft 536 kts 127°
2026-05-05 11:27 34.78666 137.05079 39245 ft 526 kts 128°
2026-05-05 11:27 34.76968 137.08940 39248 ft 510 kts 129°
2026-05-05 11:28 34.75319 137.12631 39247 ft 496 kts 129°
2026-05-05 11:28 34.73689 137.16263 39252 ft 481 kts 130°
2026-05-05 11:28 34.72118 137.19768 39254 ft 466 kts 130°
2026-05-05 11:28 34.70592 137.23180 39250 ft 451 kts 131°
2026-05-05 11:29 34.69129 137.26464 39250 ft 435 kts 131°
2026-05-05 11:29 34.67718 137.29636 39247 ft 418 kts 132°
2026-05-05 11:29 34.66322 137.32742 39127 ft 422 kts 132°
2026-05-05 11:29 34.64852 137.35920 38056 ft 456 kts 132°
2026-05-05 11:30 34.63231 137.39386 37232 ft 485 kts 131°
2026-05-05 11:30 34.61573 137.43012 37025 ft 499 kts 130°
2026-05-05 11:30 34.59901 137.46752 37119 ft 505 kts 129°
2026-05-05 11:30 34.58232 137.50522 37223 ft 510 kts 129°
2026-05-05 11:31 34.56543 137.54332 37344 ft 515 kts 129°
2026-05-05 11:31 34.54832 137.58178 37448 ft 520 kts 129°
2026-05-05 11:31 34.53098 137.62035 37559 ft 524 kts 130°
2026-05-05 11:32 34.49409 137.69710 37755 ft 530 kts 131°
2026-05-05 11:32 34.47528 137.73511 37885 ft 535 kts 131°
2026-05-05 11:32 34.45604 137.77399 37994 ft 540 kts 131°
2026-05-05 11:32 34.43671 137.81319 38097 ft 545 kts 131°
2026-05-05 11:33 34.41729 137.85278 38207 ft 549 kts 131°
2026-05-05 11:33 34.37813 137.93289 38454 ft 556 kts 130°
2026-05-05 11:33 34.35843 137.97327 38686 ft 558 kts 130°
2026-05-05 11:34 34.33825 138.01326 38898 ft 552 kts 135°
2026-05-05 11:34 34.31618 138.04974 38861 ft 538 kts 138°
2026-05-05 11:34 34.29350 138.08537 38499 ft 529 kts 139°
2026-05-05 11:34 34.27090 138.11994 38264 ft 519 kts 140°
2026-05-05 11:35 34.24813 138.15409 38226 ft 525 kts 140°
2026-05-05 11:35 34.20165 138.22319 38384 ft 534 kts 140°
2026-05-05 11:36 34.15467 138.29344 38624 ft 542 kts 140°
2026-05-05 11:36 34.13103 138.32897 38835 ft 543 kts 139°
2026-05-05 11:36 34.10767 138.36410 39042 ft 544 kts 139°
2026-05-05 11:36 34.08400 138.39969 39219 ft 545 kts 139°
2026-05-05 11:37 34.06026 138.43533 39266 ft 545 kts 139°
2026-05-05 11:37 34.01280 138.50645 39268 ft 544 kts 139°
2026-05-05 11:38 33.96537 138.57730 39268 ft 544 kts 139°
2026-05-05 11:38 33.91812 138.64771 39267 ft 544 kts 139°
2026-05-05 11:39 33.87053 138.71849 39267 ft 544 kts 139°
2026-05-05 11:39 33.82298 138.78933 39259 ft 546 kts 138°
2026-05-05 11:39 33.80172 138.82778 39268 ft 559 kts 127°
2026-05-05 11:40 33.78566 138.87076 39271 ft 572 kts 115°
2026-05-05 11:40 33.77639 138.91777 39278 ft 584 kts 102°
2026-05-05 11:40 33.77516 138.96678 39271 ft 591 kts 87°
2026-05-05 11:40 33.78238 139.01541 39267 ft 593 kts 73°
2026-05-05 11:41 33.79743 139.06063 39272 ft 590 kts 59°
2026-05-05 11:41 33.81989 139.10163 39286 ft 583 kts 45°
2026-05-05 11:41 33.84775 139.13634 39282 ft 575 kts 36°
2026-05-05 11:41 33.87450 139.17258 39282 ft 586 kts 49°
2026-05-05 11:42 33.89756 139.21320 39281 ft 589 kts 53°
2026-05-05 11:42 33.94109 139.29714 39283 ft 591 kts 55°
2026-05-05 11:43 33.98287 139.38186 39287 ft 592 kts 56°
2026-05-05 11:43 34.02477 139.46728 39283 ft 592 kts 56°
2026-05-05 11:44 34.06729 139.55212 39283 ft 589 kts 50°
2026-05-05 11:44 34.11682 139.63050 39289 ft 586 kts 46°
2026-05-05 11:45 34.16730 139.70673 39289 ft 585 kts 46°
2026-05-05 11:45 34.21839 139.78332 39288 ft 585 kts 46°
2026-05-05 11:46 34.26930 139.86005 39293 ft 586 kts 46°
2026-05-05 11:46 34.31982 139.93662 39288 ft 586 kts 46°
2026-05-05 11:47 34.37053 140.01368 39289 ft 586 kts 46°
2026-05-05 11:47 34.42131 140.09101 39294 ft 586 kts 46°
2026-05-05 11:48 34.49206 140.21269 39298 ft 592 kts 53°
2026-05-05 11:48 34.53566 140.29669 39294 ft 592 kts 53°
2026-05-05 11:49 34.57938 140.38146 39284 ft 593 kts 54°
2026-05-05 11:49 34.62302 140.46631 39293 ft 593 kts 54°
2026-05-05 11:50 34.64478 140.50872 39111 ft 592 kts 54°
2026-05-05 11:50 34.66658 140.55124 38857 ft 593 kts 54°
2026-05-05 11:50 34.68864 140.59353 38596 ft 592 kts 51°
2026-05-05 11:50 34.71396 140.63173 38334 ft 583 kts 38°
2026-05-05 11:51 34.74428 140.66304 37966 ft 564 kts 25°
2026-05-05 11:51 34.77795 140.68586 37429 ft 543 kts 12°
2026-05-05 11:51 34.81304 140.69995 36869 ft 522 kts
2026-05-05 11:51 34.84812 140.70597 36310 ft 500 kts 349°
2026-05-05 11:52 34.88217 140.70477 35774 ft 482 kts 340°
2026-05-05 11:52 34.91581 140.70188 35226 ft 490 kts 345°
2026-05-05 11:52 34.95048 140.70362 34596 ft 504 kts 352°
2026-05-05 11:52 34.98510 140.70763 33913 ft 509 kts 353°
2026-05-05 11:53 35.02030 140.71203 33231 ft 509 kts 353°
2026-05-05 11:53 35.05572 140.71796 32551 ft 522 kts
2026-05-05 11:53 35.09092 140.73210 31798 ft 547 kts 15°
2026-05-05 11:53 35.12447 140.75591 30982 ft 564 kts 25°
2026-05-05 11:54 35.15692 140.78318 30099 ft 569 kts 26°
2026-05-05 11:54 35.18943 140.81080 29185 ft 569 kts 26°
2026-05-05 11:54 35.22191 140.83822 28461 ft 566 kts 27°
2026-05-05 11:54 35.25424 140.86538 27827 ft 560 kts 27°
2026-05-05 11:55 35.28577 140.89178 27257 ft 553 kts 27°
2026-05-05 11:55 35.31724 140.91811 26575 ft 543 kts 27°
2026-05-05 11:55 35.34817 140.94397 25812 ft 534 kts 28°
2026-05-05 11:55 35.37853 140.96934 25143 ft 523 kts 28°
2026-05-05 11:56 35.40830 140.99425 24543 ft 511 kts 29°
2026-05-05 11:56 35.43729 141.01851 23952 ft 500 kts 29°
2026-05-05 11:56 35.46585 141.04198 23286 ft 486 kts 27°
2026-05-05 11:56 35.49572 141.05902 22741 ft 462 kts 11°
2026-05-05 11:57 35.52645 141.06514 22238 ft 437 kts 355°
2026-05-05 11:57 35.55578 141.06189 21754 ft 424 kts 346°
2026-05-05 11:57 35.58468 141.05604 21283 ft 419 kts 346°
2026-05-05 11:57 35.61331 141.05009 20795 ft 415 kts 346°
2026-05-05 11:58 35.64162 141.04432 20316 ft 411 kts 347°
2026-05-05 11:58 35.66978 141.03867 19828 ft 408 kts 347°
2026-05-05 11:58 35.69768 141.03312 19339 ft 405 kts 348°
2026-05-05 11:58 35.72526 141.02693 18856 ft 401 kts 343°
2026-05-05 11:59 35.75095 141.01481 18328 ft 394 kts 328°
2026-05-05 11:59 35.77232 140.99497 17787 ft 388 kts 313°
2026-05-05 11:59 35.78854 140.96891 17259 ft 383 kts 301°
2026-05-05 11:59 35.80195 140.94065 16721 ft 381 kts 298°
2026-05-05 12:00 35.81495 140.91235 16195 ft 379 kts 298°
2026-05-05 12:00 35.82794 140.88417 15663 ft 377 kts 298°
2026-05-05 12:00 35.84089 140.85622 15126 ft 375 kts 298°
2026-05-05 12:00 35.85382 140.82834 14597 ft 374 kts 299°
2026-05-05 12:01 35.86670 140.80063 14057 ft 372 kts 298°
2026-05-05 12:01 35.87956 140.77295 13378 ft 372 kts 298°
2026-05-05 12:01 35.89226 140.74560 12694 ft 373 kts 298°
2026-05-05 12:01 35.90510 140.71795 12138 ft 371 kts 298°
2026-05-05 12:02 35.91784 140.69050 11589 ft 368 kts 298°
2026-05-05 12:02 35.93053 140.66313 11058 ft 365 kts 298°
2026-05-05 12:02 35.94297 140.63630 10794 ft 353 kts 298°
2026-05-05 12:02 35.95484 140.61068 10677 ft 337 kts 298°
2026-05-05 12:03 35.96622 140.58609 10570 ft 321 kts 298°
2026-05-05 12:03 35.97705 140.56268 10447 ft 308 kts 298°
2026-05-05 12:03 35.98832 140.54074 10293 ft 297 kts 304°
2026-05-05 12:03 36.00014 140.52090 10168 ft 286 kts 305°
2026-05-05 12:04 36.01191 140.50155 10026 ft 278 kts 305°
2026-05-05 12:04 36.02336 140.48268 9792 ft 275 kts 305°
2026-05-05 12:04 36.03498 140.46343 9436 ft 283 kts 305°
2026-05-05 12:04 36.04677 140.44392 9072 ft 283 kts 305°
2026-05-05 12:05 36.05853 140.42447 8722 ft 281 kts 305°
2026-05-05 12:05 36.07018 140.40518 8389 ft 279 kts 305°
2026-05-05 12:05 36.08174 140.38603 8058 ft 277 kts 305°
2026-05-05 12:05 36.09309 140.36721 7726 ft 276 kts 305°
2026-05-05 12:06 36.10450 140.34829 7401 ft 274 kts 305°
2026-05-05 12:06 36.11507 140.32879 7070 ft 271 kts 295°
2026-05-05 12:06 36.12005 140.30671 6839 ft 266 kts 273°
2026-05-05 12:06 36.12035 140.28380 6667 ft 267 kts 268°
2026-05-05 12:07 36.12002 140.26094 6488 ft 266 kts 268°
2026-05-05 12:07 36.11972 140.23803 6307 ft 266 kts 268°
2026-05-05 12:07 36.11823 140.21532 6121 ft 265 kts 257°
2026-05-05 12:07 36.11068 140.19516 5957 ft 263 kts 231°
2026-05-05 12:08 36.09654 140.18125 5779 ft 262 kts 205°
2026-05-05 12:08 36.07882 140.17629 5650 ft 261 kts 183°
2026-05-05 12:08 36.06107 140.17642 5528 ft 250 kts 180°
2026-05-05 12:08 36.04408 140.17742 5419 ft 242 kts 175°
2026-05-05 12:09 36.02792 140.18322 5307 ft 244 kts 157°
2026-05-05 12:09 36.01367 140.19452 5197 ft 244 kts 147°
2026-05-05 12:09 35.99953 140.20613 5084 ft 243 kts 149°
2026-05-05 12:09 35.98537 140.21693 4926 ft 242 kts 151°
2026-05-05 12:10 35.97069 140.22684 4729 ft 241 kts 156°
2026-05-05 12:10 35.95570 140.23608 4386 ft 241 kts 153°
2026-05-05 12:10 35.94130 140.24682 4008 ft 242 kts 150°
2026-05-05 12:10 35.92703 140.25758 3633 ft 235 kts 153°
2026-05-05 12:11 35.91338 140.26736 3308 ft 220 kts 153°
2026-05-05 12:11 35.90035 140.27679 3007 ft 215 kts 152°
2026-05-05 12:11 35.88801 140.28582 2745 ft 203 kts 152°
2026-05-05 12:11 35.87639 140.29427 2501 ft 186 kts 152°
2026-05-05 12:12 35.86558 140.30212 2226 ft 174 kts 152°
2026-05-05 12:12 35.85604 140.30906 2006 ft 160 kts 152°
2026-05-05 12:12 35.84684 140.31574 1797 ft 147 kts 152°
2026-05-05 12:12 35.83844 140.32184 1600 ft 134 kts 152°
2026-05-05 12:13 35.83105 140.32720 1644 ft 118 kts 153°
2026-05-05 12:13 35.82335 140.33291 1362 ft 134 kts 151°
2026-05-05 12:13 35.81532 140.33874 1070 ft 132 kts 153°
2026-05-05 12:13 35.80773 140.34433 894 ft 127 kts 150°
2026-05-05 12:14 35.79990 140.34987 762 ft 133 kts 151°
2026-05-05 12:14 35.79175 140.35571 561 ft 136 kts 150°
2026-05-05 12:14 35.78370 140.36159 393 ft 135 kts 150°
2026-05-05 12:14 35.77566 140.36736 222 ft 133 kts 150°
2026-05-05 12:15 35.76792 140.37292 150 ft 115 kts 150°
2026-05-05 12:15 35.76212 140.37705 149 ft 78 kts 149°
2026-05-05 12:15 35.75861 140.37969 152 ft 39 kts 149°
2026-05-05 12:15 35.75656 140.38118 153 ft 33 kts 146°
2026-05-05 12:16 35.75533 140.38268 151 ft 24 kts 123°
2026-05-05 12:16 35.75487 140.38365 151 ft 7 kts 120°
2026-05-05 12:16 35.75464 140.38435 151 ft 10 kts 101°
2026-05-05 12:16 35.75501 140.38478 150 ft 9 kts 355°
2026-05-05 12:17 35.75564 140.38441 150 ft 12 kts 329°
2026-05-05 12:17 35.75644 140.38383 150 ft 14 kts 330°
2026-05-05 12:17 35.75697 140.38371 150 ft 8 kts 17°
2026-05-05 12:17 35.75735 140.38431 150 ft 10 kts 60°
2026-05-05 12:18 35.75779 140.38499 150 ft 10 kts 28°
2026-05-05 12:18 35.75795 140.38505 150 ft 3 kts 14°
2026-05-05 12:18 35.75823 140.38512 150 ft 5 kts 19°
2026-05-05 12:18 35.75851 140.38541 150 ft 5 kts 49°
2026-05-05 12:19 35.75859 140.38555 150 ft 0 kts 57°
2026-05-05 12:19 35.75864 140.38565 150 ft 4 kts 57°
2026-05-05 12:19 35.75873 140.38583 150 ft 1 kts 59°
2026-05-05 12:19 35.75874 140.38585 150 ft 0 kts 59°